UAE2AY OMDB-EGPH

Flight info

Callsign UAE2AY
Flight time N/A
Altitude 36000
Route ANVIX7F ANVIX L223 TARDI N629 BOTAM Y855 LAKLU Q204 NALKI G652 TOKRA DCT ALROK/N0494F380 DCT BOSOB DCT ITRUX Y511 PMA Z712 WEJ L677 GESON Q777 LAGVI/N0490F400 Q777 RASDA DCT OTHON DCT VAXOS DCT RDS UL609 MES DCT FSK DCT DISOR DCT LONTA UL608 DOLEV DCT RADLY DCT SIMBA DCT KEMES DCT GASKA DCT MAPOX DCT SOGPO DCT SPY DCT MIMVA L602 NALAX L46 ESHIN N110 ERKIT DCT AGPED AGPED1E
Aircraft A359/H-SDE2E3GHIJ3J4J5LM1ORWXY/LB1D1

Departure

Time 2026-04-20 13:41
Airport Dubai International Airport (OMDB)

Arrival

Time N/A
Airport Edinburgh Airport (EGPH)
Time Latitude Longitude Altitude Speed Heading
2026-04-20 13:21 25.24320 55.37452 28 ft 0 kts 207°
2026-04-20 13:29 25.24342 55.37465 25 ft 4 kts 211°
2026-04-20 13:29 25.24364 55.37481 26 ft 3 kts 210°
2026-04-20 13:29 25.24385 55.37490 26 ft 4 kts 172°
2026-04-20 13:30 25.24403 55.37477 23 ft 4 kts 120°
2026-04-20 13:30 25.24411 55.37461 24 ft 2 kts 121°
2026-04-20 13:35 25.24401 55.37480 24 ft 6 kts 121°
2026-04-20 13:35 25.24364 55.37547 28 ft 14 kts 121°
2026-04-20 13:35 25.24299 55.37663 28 ft 21 kts 122°
2026-04-20 13:36 25.24217 55.37810 28 ft 23 kts 121°
2026-04-20 13:36 25.24135 55.37960 28 ft 23 kts 121°
2026-04-20 13:36 25.24050 55.38113 28 ft 23 kts 121°
2026-04-20 13:36 25.23964 55.38269 28 ft 24 kts 121°
2026-04-20 13:37 25.23907 55.38373 28 ft 24 kts 121°
2026-04-20 13:37 25.23888 55.38584 28 ft 19 kts 106°
2026-04-20 13:37 25.23824 55.38712 28 ft 20 kts 121°
2026-04-20 13:37 25.23753 55.38842 28 ft 20 kts 121°
2026-04-20 13:38 25.23681 55.38977 28 ft 21 kts 121°
2026-04-20 13:38 25.23604 55.39112 28 ft 21 kts 124°
2026-04-20 13:38 25.23525 55.39247 28 ft 21 kts 121°
2026-04-20 13:38 25.23447 55.39388 28 ft 22 kts 121°
2026-04-20 13:39 25.23424 55.39492 28 ft 0 kts 66°
2026-04-20 13:39 25.23434 55.39506 27 ft 4 kts 53°
2026-04-20 13:39 25.23477 55.39544 28 ft 10 kts 31°
2026-04-20 13:40 25.23555 55.39533 28 ft 13 kts 315°
2026-04-20 13:40 25.23640 55.39386 28 ft 46 kts 302°
2026-04-20 13:40 25.23916 55.38892 28 ft 103 kts 301°
2026-04-20 13:40 25.24380 55.38057 28 ft 151 kts 301°
2026-04-20 13:41 25.24995 55.36944 167 ft 182 kts 301°
2026-04-20 13:41 25.25437 55.36139 459 ft 187 kts 300°
2026-04-20 13:41 25.26099 55.34897 1062 ft 188 kts 301°
2026-04-20 13:41 25.26739 55.33645 1704 ft 187 kts 298°
2026-04-20 13:42 25.27352 55.32383 2311 ft 185 kts 298°
2026-04-20 13:42 25.28752 55.29313 3331 ft 205 kts 290°
2026-04-20 13:42 25.28844 55.28222 3441 ft 220 kts 263°
2026-04-20 13:43 25.28351 55.26566 3722 ft 234 kts 248°
2026-04-20 13:43 25.27653 55.24901 4146 ft 241 kts 246°
2026-04-20 13:43 25.26937 55.23246 4666 ft 244 kts 247°
2026-04-20 13:43 25.26200 55.21542 5184 ft 247 kts 246°
2026-04-20 13:44 25.25222 55.19921 5457 ft 264 kts 228°
2026-04-20 13:44 25.23647 55.18790 5713 ft 281 kts 198°
2026-04-20 13:44 25.21679 55.18706 5969 ft 290 kts 166°
2026-04-20 13:44 25.19915 55.19744 6001 ft 289 kts 134°
2026-04-20 13:45 25.18827 55.21584 6014 ft 288 kts 113°
2026-04-20 13:45 25.18017 55.23613 5881 ft 289 kts 112°
2026-04-20 13:45 25.17176 55.25593 5811 ft 288 kts 114°
2026-04-20 13:45 25.16267 55.27569 5815 ft 289 kts 116°
2026-04-20 13:46 25.15320 55.29519 5819 ft 289 kts 117°
2026-04-20 13:46 25.14352 55.31457 5816 ft 288 kts 117°
2026-04-20 13:46 25.13374 55.33382 5822 ft 287 kts 118°
2026-04-20 13:46 25.12389 55.35303 5821 ft 287 kts 118°
2026-04-20 13:47 25.11403 55.37219 5819 ft 288 kts 118°
2026-04-20 13:47 25.10412 55.39137 5823 ft 288 kts 118°
2026-04-20 13:47 25.09432 55.41033 5840 ft 287 kts 118°
2026-04-20 13:47 25.08439 55.42950 6054 ft 289 kts 118°
2026-04-20 13:48 25.07441 55.44876 6575 ft 291 kts 118°
2026-04-20 13:48 25.06431 55.46823 7149 ft 292 kts 118°
2026-04-20 13:48 25.05417 55.48778 7702 ft 295 kts 118°
2026-04-20 13:48 25.04394 55.50748 8304 ft 297 kts 118°
2026-04-20 13:49 25.03372 55.52716 8701 ft 298 kts 118°
2026-04-20 13:49 25.02340 55.54704 8800 ft 299 kts 118°
2026-04-20 13:49 25.01300 55.56699 8818 ft 300 kts 118°
2026-04-20 13:49 25.00235 55.58675 8817 ft 301 kts 119°
2026-04-20 13:50 24.99174 55.60627 8910 ft 300 kts 119°
2026-04-20 13:50 24.98101 55.62604 9233 ft 301 kts 120°
2026-04-20 13:50 24.97022 55.64592 9673 ft 303 kts 119°
2026-04-20 13:50 24.95940 55.66589 9806 ft 304 kts 119°
2026-04-20 13:51 24.94856 55.68592 9820 ft 305 kts 119°
2026-04-20 13:51 24.93700 55.70563 9822 ft 306 kts 123°
2026-04-20 13:51 24.92461 55.72465 9820 ft 306 kts 125°
2026-04-20 13:51 24.91206 55.74352 9820 ft 305 kts 125°
2026-04-20 13:52 24.89950 55.76240 9818 ft 306 kts 125°
2026-04-20 13:52 24.88693 55.78131 9819 ft 307 kts 124°
2026-04-20 13:52 24.87448 55.80008 9825 ft 307 kts 125°
2026-04-20 13:52 24.86188 55.81906 9824 ft 307 kts 125°
2026-04-20 13:53 24.84930 55.83802 9830 ft 307 kts 125°
2026-04-20 13:53 24.83666 55.85709 9829 ft 307 kts 125°
2026-04-20 13:53 24.82393 55.87598 9827 ft 307 kts 126°
2026-04-20 13:53 24.81110 55.89485 9830 ft 308 kts 126°
2026-04-20 13:54 24.79827 55.91372 9824 ft 307 kts 126°
2026-04-20 13:54 24.78534 55.93242 9824 ft 306 kts 128°
2026-04-20 13:54 24.77132 55.94963 9829 ft 307 kts 133°
2026-04-20 13:54 24.75612 55.96617 9829 ft 308 kts 136°
2026-04-20 13:55 24.74047 55.98215 9828 ft 308 kts 137°
2026-04-20 13:55 24.72459 55.99800 9830 ft 308 kts 137°
2026-04-20 13:55 24.70869 56.01386 9830 ft 308 kts 137°
2026-04-20 13:55 24.69288 56.02975 9832 ft 308 kts 137°
2026-04-20 13:56 24.67714 56.04573 9834 ft 307 kts 136°
2026-04-20 13:56 24.66150 56.06174 9865 ft 307 kts 136°
2026-04-20 13:56 24.64571 56.07798 10042 ft 317 kts 136°
2026-04-20 13:56 24.62942 56.09474 10290 ft 333 kts 136°
2026-04-20 13:57 24.61209 56.11254 10534 ft 349 kts 136°
2026-04-20 13:57 24.59400 56.13117 10798 ft 363 kts 136°
2026-04-20 13:57 24.57552 56.15088 11058 ft 376 kts 133°
2026-04-20 13:57 24.55746 56.17233 11317 ft 388 kts 131°
2026-04-20 13:58 24.53933 56.19476 11587 ft 397 kts 131°
2026-04-20 13:58 24.52114 56.21782 12008 ft 401 kts 130°
2026-04-20 13:58 24.50287 56.24119 12441 ft 405 kts 130°
2026-04-20 13:58 24.48448 56.26481 12836 ft 410 kts 130°
2026-04-20 13:59 24.46587 56.28866 13235 ft 414 kts 130°
2026-04-20 13:59 24.44725 56.31239 13695 ft 417 kts 130°
2026-04-20 13:59 24.42830 56.33652 14191 ft 416 kts 130°
2026-04-20 13:59 24.40936 56.36064 14607 ft 419 kts 130°
2026-04-20 14:00 24.39027 56.38493 14975 ft 422 kts 130°
2026-04-20 14:00 24.37105 56.40937 15364 ft 425 kts 131°
2026-04-20 14:00 24.35169 56.43393 15779 ft 426 kts 131°
2026-04-20 14:00 24.33223 56.45861 16151 ft 429 kts 131°
2026-04-20 14:01 24.31291 56.48309 16546 ft 432 kts 131°
2026-04-20 14:01 24.29323 56.50805 16939 ft 434 kts 130°
2026-04-20 14:01 24.27442 56.53399 17352 ft 436 kts 127°
2026-04-20 14:01 24.25656 56.56095 17732 ft 438 kts 125°
2026-04-20 14:02 24.23901 56.58840 18118 ft 441 kts 125°
2026-04-20 14:02 24.22148 56.61595 18489 ft 442 kts 125°
2026-04-20 14:02 24.20375 56.64353 18816 ft 445 kts 126°
2026-04-20 14:02 24.18572 56.67119 19128 ft 447 kts 126°
2026-04-20 14:03 24.16746 56.69892 19465 ft 450 kts 126°
2026-04-20 14:03 24.14909 56.72660 19808 ft 452 kts 126°
2026-04-20 14:03 24.12933 56.75364 20137 ft 455 kts 134°
2026-04-20 14:03 24.10569 56.77590 20464 ft 456 kts 147°
2026-04-20 14:04 24.07732 56.79099 20794 ft 455 kts 164°
2026-04-20 14:04 24.04628 56.79664 21134 ft 453 kts 181°
2026-04-20 14:04 24.01514 56.79242 21418 ft 451 kts 198°
2026-04-20 14:04 23.98613 56.77977 21766 ft 449 kts 210°
2026-04-20 14:05 23.95904 56.76276 22137 ft 449 kts 215°
2026-04-20 14:05 23.93293 56.74392 22508 ft 451 kts 217°
2026-04-20 14:05 23.90701 56.72457 22858 ft 453 kts 217°
2026-04-20 14:05 23.88082 56.70528 23231 ft 455 kts 216°
2026-04-20 14:06 23.85457 56.68651 23524 ft 459 kts 216°
2026-04-20 14:06 23.82760 56.66778 23878 ft 460 kts 215°
2026-04-20 14:06 23.80043 56.64933 24206 ft 461 kts 214°
2026-04-20 14:06 23.77304 56.63096 24563 ft 462 kts 214°
2026-04-20 14:07 23.74558 56.61264 24942 ft 464 kts 214°
2026-04-20 14:07 23.71799 56.59427 25313 ft 466 kts 213°
2026-04-20 14:07 23.69021 56.57579 25656 ft 469 kts 214°
2026-04-20 14:07 23.66238 56.55724 26106 ft 469 kts 214°
2026-04-20 14:08 23.63453 56.53865 26512 ft 470 kts 214°
2026-04-20 14:08 23.60694 56.52021 26871 ft 472 kts 214°
2026-04-20 14:08 23.57892 56.50148 27262 ft 474 kts 213°
2026-04-20 14:08 23.55082 56.48269 27628 ft 475 kts 213°